Location: Unspecified
(35.6961°N, 0.0000°E)
Time: 00:20:09
(UTC+00:00)

Vanguard 2 Rocket - Pass Details

Date: 01 June 2019
Orbit: 555 x 3326 km, 32.9° (Epoch: 26 June)

Event Time Altitude Azimuth Distance (km) Brightness Sun altitude
Rises 09:40:12 0° 284° (WNW) 6,647 11.0 57.1°
Reaches altitude 10° 09:45:44 10° 276° (W) 5,215 10.6 58.2°
Maximum altitude 09:57:21 32° 221° (SW) 2,710 9.6 60.5°
Drops below altitude 10° 10:04:41 10° 161° (SSE) 3,241 10.1 61.9°
Sets 10:07:17 0° 151° (SSE) 3,898 10.4 62.4°
